Bowling Green, KY

1:18 AM CDT on May 26, 2017 (GMT -0500)
Bowling Green-Warren County Regional

Weather History for KBWG - June, 2013

Change the Weather History Date:

Friday, June 28, 2013

  Actual Average Record
Temperature  
Mean Temperature 80 °F 78 °F  
Max Temperature 90 °F 89 °F 106 °F (1936)
Min Temperature 69 °F 67 °F 50 °F (1926)
Degree Days  
Heating Degree Days 0 0  
Month to date heating degree days 0 3  
Since 1 June heating degree days 0 3  
Since 1 July heating degree days 3875 4046  
Cooling Degree Days 15 13  
Month to date cooling degree days 314 279  
Year to date cooling degree days 527 432  
Since 1 June cooling degree days 314 279  
Growing Degree Days 32 (Base 50)    
Moisture  
Dew Point 67 °F    
Average Humidity 63    
Maximum Humidity 84    
Minimum Humidity 41    
Precipitation  
Precipitation T in 0.13 in 3.47 in (1960)
Month to date precipitation 2.36 3.94  
Year to date precipitation 26.89 25.87  
Snow  
Snow 0.00 in 0.00 in 0.00 in ()
Month to date snowfall 0.0 0.0  
Since 1 June snowfall 0.0 0.0  
Since 1 July snowfall 3.8 9.1  
Snow Depth 0.00 in    
Sea Level Pressure  
Sea Level Pressure 29.73 in    
Wind  
Wind Speed 6 mph (West)    
Max Wind Speed 16 mph    
Max Gust Speed 23 mph    
Visibility 10 miles    
Events      
T = Trace of Precipitation, MM = Missing Value Source: NWS Daily Summary

Daily Weather History Graph

Daily Weather History Graph

Search for Another Location

Airport or City:

Trip Planner

Search our weather history database for the weather conditions in past years. The results will help you decide how hot, cold, wet, or windy it might be!

Date:

Astronomy

Jun. 28, 2013 Rise Set
Actual Time 5:28 AM CDT 8:09 PM CDT
Civil Twilight 4:57 AM CDT 8:39 PM CDT
Nautical Twilight 4:19 AM CDT 9:18 PM CDT
Astronomical Twilight 3:36 AM CDT 10:01 PM CDT
Moon 11:48 PM CDT (6/28) 11:26 AM CDT (6/28)
Length of Visible Light 15h 42m
Length of Day
14h 40m
Waning Gibbous, 66% of the Moon is Illuminated
Jun 28
Waning Gibbous
Jun 29
Last Quarter
Jul 8
New
Jul 15
First Quarter
Jul 22
Full

Hourly Weather History & Observations

Time (CDT) Temp. Heat Index Dew Point Humidity Pressure Visibility Wind Dir Wind Speed Gust Speed Precip Events Conditions
12:53 AM 77.0 °F - 68.0 °F 74% 29.80 in 10.0 mi WSW 4.6 mph - N/A   Clear
1:53 AM 75.9 °F - 68.0 °F 76% 29.80 in 10.0 mi West 3.5 mph - N/A   Clear
2:53 AM 75.9 °F - 68.0 °F 76% 29.79 in 10.0 mi WSW 3.5 mph - N/A   Clear
3:53 AM 75.9 °F - 68.0 °F 76% 29.78 in 10.0 mi WSW 4.6 mph - N/A   Clear
4:53 AM 73.9 °F - 68.0 °F 82% 29.76 in 10.0 mi Calm Calm - N/A   Clear
5:53 AM 75.0 °F - 68.0 °F 79% 29.78 in 10.0 mi SW 6.9 mph - N/A   Clear
6:53 AM 75.9 °F - 69.1 °F 79% 29.77 in 10.0 mi SW 5.8 mph - N/A   Clear
7:53 AM 77.0 °F - 70.0 °F 79% 29.77 in 10.0 mi West 4.6 mph - N/A   Clear
8:53 AM 80.1 °F 82.7 °F 68.0 °F 67% 29.77 in 10.0 mi WNW 4.6 mph - N/A   Clear
9:53 AM 80.1 °F 82.7 °F 68.0 °F 67% 29.77 in 10.0 mi WNW 4.6 mph - N/A   Partly Cloudy
10:53 AM 80.1 °F 82.3 °F 66.9 °F 64% 29.75 in 10.0 mi Calm Calm - N/A   Overcast
11:53 AM 80.1 °F 82.3 °F 66.9 °F 64% 29.77 in 10.0 mi West 8.1 mph - N/A   Overcast
12:53 PM 82.9 °F 85.4 °F 66.9 °F 58% 29.75 in 10.0 mi West 9.2 mph - 0.00 in   Mostly Cloudy
1:53 PM 87.1 °F 88.3 °F 64.0 °F 46% 29.72 in 10.0 mi WNW 9.2 mph - N/A   Scattered Clouds
2:53 PM 89.1 °F 90.3 °F 64.0 °F 43% 29.70 in 10.0 mi West 15.0 mph 19.6 mph N/A   Partly Cloudy
3:53 PM 90.0 °F 92.8 °F 66.9 °F 46% 29.67 in 10.0 mi West 12.7 mph 16.1 mph N/A   Scattered Clouds
4:53 PM 89.1 °F 89.3 °F 62.1 °F 40% 29.65 in 10.0 mi WNW 11.5 mph 18.4 mph N/A   Partly Cloudy
5:53 PM 88.0 °F 89.3 °F 64.0 °F 45% 29.65 in 10.0 mi West 8.1 mph - N/A   Partly Cloudy
6:53 PM 86.0 °F 87.3 °F 64.0 °F 48% 29.65 in 10.0 mi West 8.1 mph 17.3 mph N/A   Clear
7:53 PM 82.9 °F 84.4 °F 64.0 °F 53% 29.65 in 10.0 mi WSW 5.8 mph - N/A   Clear
8:53 PM 82.9 °F 84.6 °F 64.9 °F 54% 29.66 in 10.0 mi Calm Calm - N/A   Overcast
9:53 PM 75.0 °F - 66.9 °F 76% 29.69 in 10.0 mi SW 6.9 mph - 0.00 in   Overcast
10:53 PM 73.0 °F - 66.0 °F 79% 29.70 in 10.0 mi WSW 3.5 mph - N/A   Scattered Clouds
11:53 PM 72.0 °F - 66.0 °F 81% 29.70 in 10.0 mi SW 4.6 mph - N/A   Clear